Regional Weather Roundup
Issued by NWS

Home | Current Version | Previous Version | Graphics & Text | Print | Product List | Glossary On
Versions: 1 2 3 4 5 6 7 8 9 10 11 12 13 14 15 16 17 18 19 20 21 22 23 24 25 26 27 28 29 30 31 32 33 34 35 36 37 38 39 40 41 42 43 44 45 46 47 48 49
000
ASUS45 KCYS 020910
RWRWY

WYOMING REGIONAL WEATHER ROUNDUP
NATIONAL WEATHER SERVICE CHEYENNE WY
200 AM MST MON MAR 02 2015

NOTE:  "FAIR" INDICATES FEW OR NO CLOUDS BELOW 12,000 FEET
WITH NO SIGNIFICANT WEATHER AND/OR OBSTRUCTIONS TO VISIBILITY.

WYZ001-021000-
YELLOWSTONE NATIONAL PARK

CITY           SKY/WX    TMP DP  RH WIND       PRES   REMARKS
LK YELLOWSTONE   N/A     -7 -11  83 CALM      29.95F
W YELLOWSTONE  NOT AVBL

$$
WYZ002>013-054>058-071-098>099-021000-
NORTHERN WYOMING

CITY           SKY/WX    TMP DP  RH WIND       PRES   REMARKS
JACKSON        CLOUDY    10   3  72 N13       29.97S WCI  -5
CODY           FAIR      12  12 100 SW7       29.93F WCI   2
GREYBULL       FAIR      14   9  80 SE3       30.01F
WORLAND        FAIR      15  10  80 E6        29.99F WCI   6
SHERIDAN       FAIR       5  -1  76 W5        29.96F WCI  -4
BUFFALO        FAIR      13   5  70 N5        29.91F WCI   5
GILLETTE       FAIR      17   9  70 S23       29.98F WCI  -1
HULETT         FAIR      27  10  50 S15G24    30.02F WCI  15
NEWCASTLE      FAIR      23   7  50 SE16      30.10F WCI  10

$$
WYZ014>020-022>026-101>103-021000-
CENTRAL WYOMING

CITY           SKY/WX    TMP DP  RH WIND       PRES   REMARKS
BIG PINEY      FAIR      11   6  81 CALM      29.97F
PINEDALE       FAIR       1  -4  78 NW9       29.97S WCI -14
DUBOIS         FAIR      14   9  79 NW21      29.90F WCI  -4
LANDER         FAIR      13   7  77 SE5       29.97F WCI   5
RIVERTON       FAIR       9   4  80 CALM      29.99F
CASPER         FAIR      19  12  74 E3        29.97F
DOUGLAS        FAIR      23  16  74 SE16      30.02F WCI  10

$$
WYZ021-027>030-104>119-021000-
SOUTHERN WYOMING

CITY           SKY/WX    TMP DP  RH WIND       PRES   REMARKS
EVANSTON       CLOUDY    24  18  77 NE5       29.92F WCI  18
FORT BRIDGER   PTSUNNY   25  21  85 CALM      29.96F
ROCK SPRINGS   MOCLDY    21  15  78 NE6       29.95F WCI  13
DIXON          CLOUDY    31  26  83 CALM      29.99F
RAWLINS        CLOUDY    22  16  78 SW3       29.96F
SARATOGA       CLOUDY    27  23  86 CALM      29.96F
LARAMIE        CLOUDY    19  15  84 S13       29.97F WCI   6
CHEYENNE       CLOUDY    20  15  81 S16G23    30.05F HAZE    WCI   6
TORRINGTON     FAIR      27  17  66 SE13      30.12F WCI  16
PINE BLUFFS    CLOUDY    23  19  86 S8        30.12F WCI  14

$$


USA.gov is the U.S. government's official web portal to all federal, state and local government web resources and services.